STARLINK-5374 (56144 NORAD) Tracking and Keplerian Element Data

This shows tracking and keplerian element data for the satellite.

Feedback or suggestion? Click here.




ElementValue
Catalog56144
NameSTARLINK-5374
Epoch Orbit656
Epoch Day127.25001157
Epoch Year2023
RAAN33.6691
Inclination43.0015
Eccentricity0.0001458
Argument of Perigee271.4579
Mean Anonmoly354.6565
Mean Motion15.48872639
Decay Rate0.00072916
L11 56144U 23046BE 23127.25001157 .00072916 00000+0 13140-2 0 9996
L22 56144 43.0015 33.6691 0001458 271.4579 354.6565 15.48872639 6560



Live tracking and technical data element details for STARLINK-5374 (NORAD 56144). STARLINK-5374 can be tracked NOW for your location showing map with azimuth and elevation plus other details from your city location.







IsCatalogInMostPopularTable: catalog: 56144, numindb: 3
Update: records affected: 1



GetName: 56144 STARLINK-5374

Hit Count: updated at: Sun, 04 Jun 2023 23:05:21 GMT